www.pogodaiklimat.ru
ПОГОДА в Хакодате
Время
(UTC), дата
19 8.10
20 8.10
21 8.10
22 8.10
23 8.10
00 9.10
01 9.10
02 9.10
03 9.10
04 9.10
05 9.10
06 9.10
07 9.10
08 9.10
09 9.10
10 9.10
11 9.10
12 9.10
13 9.10
14 9.10
15 9.10
17 9.10
18 9.10
19 9.10
20 9.10
21 9.10
22 9.10
23 9.10
00 10.10
01 10.10
02 10.10
03 10.10
04 10.10
05 10.10
06 10.10
07 10.10
08 10.10
09 10.10
10 10.10
11 10.10
12 10.10
13 10.10
14 10.10
15 10.10
16 10.10
17 10.10
18 10.10
19 10.10
20 10.10
21 10.10
22 10.10
23 10.10
00 11.10
01 11.10
02 11.10
03 11.10
04 11.10
05 11.10
06 11.10
07 11.10
08 11.10
09 11.10
10 11.10
11 11.10
12 11.10
13 11.10
14 11.10
15 11.10
16 11.10
17 11.10
18 11.10
19 11.10
20 11.10
21 11.10
22 11.10
23 11.10
00 12.10
01 12.10
02 12.10
03 12.10
04 12.10
05 12.10
06 12.10
07 12.10
08 12.10
09 12.10
10 12.10
11 12.10
12 12.10
13 12.10
14 12.10
15 12.10
16 12.10
17 12.10
18 12.10
19 12.10
20 12.10
21 12.10
22 12.10
23 12.10
00 13.10
01 13.10
02 13.10
03 13.10
04 13.10
05 13.10
06 13.10
07 13.10
08 13.10
09 13.10
10 13.10
11 13.10
12 13.10
13 13.10
14 13.10
15 13.10
16 13.10
17 13.10
18 13.10
19 13.10
20 13.10
21 13.10
22 13.10
23 13.10
00 14.10
01 14.10
02 14.10
03 14.10
04 14.10
05 14.10
06 14.10
07 14.10
08 14.10
09 14.10
10 14.10
11 14.10
12 14.10
13 14.10
14 14.10
15 14.10
16 14.10
17 14.10
18 14.10
19 14.10
20 14.10
21 14.10
22 14.10
23 14.10
00 15.10
01 15.10
02 15.10
03 15.10
04 15.10
05 15.10
06 15.10
07 15.10
08 15.10
09 15.10
10 15.10
11 15.10
12 15.10
13 15.10
14 15.10
15 15.10
16 15.10
17 15.10
18 15.10
Ветер
(напр.,м/с)
Видим. Явления Облачность Т
(С)
Тd
(С)
f
(%)
Тe
(С)
Тes
(С)
Комфортность P
(гПа)
Po
(гПа)
Тmin
(С)
Tmax
(С)
R
(мм)
R24
(мм)
S
(см)
З 7 н/о н/о +11.9 +5.3 64 +9 +9 тепло 1003.9 998.7
З 10 н/о н/о +11.6 +6.7 72 +8 +8 тепло 1003.2 998.0
З 7 20 км слаб. ливневой дождь 9/9
[Cu med, cong]
+11.9 +8.2 78 +9 +9 тепло 1004.2 999.0
З 7 н/о н/о +12.6 +8.7 77 +10 +10 тепло 1005.4 1000.2
З 8 н/о н/о +13.0 +8.3 73 +10 +10 тепло 1006.6 1001.4
З 7 15 км слаб. ливневой дождь 9/9
[Cu med, cong]
+13.5 +8.1 70 +11 +11 тепло 1007.7 1002.5 +10.6 0.5
З 10 н/о н/о +14.5 +8.2 66 +12 +12 тепло 1008.5 1003.3
З 12 н/о н/о +16.0 +8.5 61 +14 +14 тепло 1008.3 1003.1
З 11 15 км в посл. час ливневой дождь 9/9
[Cu med, cong]
+16.5 +8.5 59 +15 +15 тепло 1009.0 1003.8
З 9 н/о н/о +16.2 +7.9 58 +14 +14 тепло 1009.9 1004.7
З 9 н/о н/о +16.2 +7.9 58 +15 +15 тепло 1010.6 1005.4
З 7 20 км {ливн. осадки} 8/8
[Cu med, cong]
+16.2 +8.2 59 +15 +15 тепло 1011.3 1006.1 0.0
З 7 н/о н/о +15.9 +7.7 58 +14 +14 тепло 1012.1 1006.9
З 6 н/о н/о +14.7 +7.0 60 +13 +13 тепло 1013.2 1008.0
З 5 20 км 4/4
[Cu hum]
+14.1 +7.4 64 +12 +12 тепло 1014.2 1008.9
З 4 н/о н/о +13.7 +7.7 67 +12 +12 тепло 1015.3 1010.0
З 3 н/о н/о +13.4 +7.8 69 +12 +12 тепло 1016.1 1010.8
СВ 1 20 км ясно +11.0 +8.1 82 +11 +11 тепло 1016.8 1011.5 +17.7 0.0
С 2 н/о н/о +10.2 +7.6 84 +9 +9 тепло 1017.3 1012.0
С 1 н/о н/о +10.2 +8.0 86 +10 +10 тепло 1017.4 1012.1
В 2 н/о н/о +9.7 +7.8 88 +8 +8 тепло 1017.9 1012.5
СВ 3 н/о н/о +10.1 +8.4 89 +8 +8 тепло 1018.9 1013.5
ЮВ 1 20 км 8/1
[Cu hum Ci fib]
+10.2 +8.3 88 +10 +10 тепло 1019.5 1014.1
С 3 н/о н/о +10.9 +8.3 84 +9 +9 тепло 1019.7 1014.4
С 2 н/о н/о +10.1 +8.2 88 +9 +9 тепло 1019.8 1014.4
С 3 20 км 3/1
[Cu hum Ac trans Ci sp]
+10.0 +8.3 89 +8 +8 тепло 1019.7 1014.3
Ю 1 н/о н/о +12.3 +9.3 82 +13 +13 тепло 1020.2 1014.9
В 1 н/о н/о +15.3 +8.1 62 +17 +17 тепло 1020.4 1015.1
З 2 30 км 3/1
[Cu hum Ci sp]
+17.2 +9.4 60 +18 +22 тепло 1020.4 1015.2 +9.3
ЮЗ 3 н/о н/о +18.2 +9.6 57 +19 +19 тепло 1020.3 1015.1
ЮЗ 3 н/о н/о +18.4 +8.9 54 +19 +19 тепло 1019.9 1014.7
Ю 3 40 км 1/1
[Cu hum]
+19.4 +9.0 51 +20 +27 тепло 1019.2 1014.0
Ю 4 н/о н/о +19.3 +9.2 52 +20 +20 тепло 1018.7 1013.5
ЮЗ 4 н/о н/о +19.3 +10.6 57 +20 +20 тепло 1018.4 1013.2
З 3 40 км 1/1
[Cu hum Ci sp]
+19.6 +11.6 60 +21 +24 комфорт 1018.7 1013.5
З 2 н/о н/о +18.8 +11.4 62 +20 +20 тепло 1018.5 1013.3
ЮВ 2 н/о н/о +18.5 +11.8 65 +20 +20 тепло 1018.9 1013.7
СВ 2 20 км 9/1
[Cu hum Ci sp]
+16.1 +12.3 78 +16 +16 тепло 1018.6 1013.4
В 2 н/о н/о +15.4 +11.8 79 +15 +15 тепло 1018.9 1013.6
В 3 н/о н/о +16.1 +12.5 79 +16 +16 тепло 1018.7 1013.5
ЮВ 2 20 км 9/3
[Cu hum Ci sp]
+15.7 +12.3 80 +16 +16 тепло 1019.3 1014.1 +20.4
В 3 н/о н/о +16.5 +12.9 79 +16 +16 тепло 1018.6 1013.4
В 4 н/о н/о +16.4 +13.0 80 +16 +16 тепло 1018.2 1013.0
В 3 н/о н/о +16.3 +13.0 81 +16 +16 тепло 1017.7 1012.5
В 2 н/о н/о +16.2 +13.1 82 +16 +16 тепло 1017.6 1012.4
В 3 н/о н/о +16.3 +13.4 83 +16 +16 тепло 1017.1 1011.9
В 3 20 км 6/3
[Cu med, cong Ac trans]
+14.7 +13.1 90 +14 +14 тепло 1016.7 1011.4
СВ 1 н/о н/о +14.5 +13.1 91 +15 +15 тепло 1017.1 1011.8
СВ 3 н/о н/о +14.2 +13.1 93 +13 +13 тепло 1016.8 1011.5
С 2 30 км 9/0
[Ac trans Ci sp]
+14.0 +12.7 92 +13 +13 тепло 1016.5 1011.2
Ю 2 н/о н/о +15.2 +13.2 88 +15 +15 тепло 1016.6 1011.4
ЮВ 1 н/о н/о +16.0 +12.6 80 +17 +17 тепло 1017.4 1012.2
В 2 30 км 9/1
[Cu hum Ac As]
+18.4 +13.5 73 +20 +21 тепло 1016.6 1011.4 +13.9
В 3 н/о н/о +19.2 +14.0 72 +21 +21 комфорт 1016.7 1011.5
СЗ 3 н/о н/о +19.1 +14.2 73 +21 +21 комфорт 1016.4 1011.2
СЗ 3 30 км 9/3
[Cu med, cong Ac As]
+19.2 +14.0 72 +21 +23 комфорт 1016.0 1010.8
СЗ 3 н/о н/о +19.2 +13.8 71 +21 +21 комфорт 1014.9 1009.7
В 1 н/о н/о +19.7 +14.5 72 +23 +23 комфорт 1014.6 1009.5
Ю 1 30 км {ливн. осадки} 9/1
[Cu med, cong Ac As]
+20.2 +14.8 71 +24 +25 комфорт 1015.1 1010.0 0.0
Ю 2 н/о н/о +19.7 +15.0 74 +22 +22 комфорт 1015.9 1010.7
В 2 н/о н/о +19.0 +15.3 79 +21 +21 комфорт 1016.0 1010.8
В 2 20 км слаб. ливневой дождь 9/3
[Cu med, cong Ac As]
+18.1 +15.6 85 +19 +19 тепло 1016.5 1011.3
С 2 н/о н/о +17.3 +15.5 89 +18 +18 тепло 1016.4 1011.2
С 2 н/о н/о +16.9 +14.6 86 +17 +17 тепло 1016.8 1011.6
СВ 1 15 км слаб. ливневой дождь 10/5
[Cu med, cong Ac As]
+16.7 +14.5 87 +18 +18 тепло 1016.6 1011.4 +20.3 0.0
В 2 н/о н/о +16.5 +14.5 88 +17 +17 тепло 1016.7 1011.5
штиль 0 н/о н/о +16.1 +13.8 86 +16 +16 тепло 1016.8 1011.6
ЮВ 2 н/о н/о +16.2 +14.9 92 +16 +16 тепло 1017.1 1011.9
СВ 2 н/о н/о +15.2 +13.6 90 +15 +15 тепло 1017.2 1012.0
В 1 н/о н/о +15.4 +14.1 92 +16 +16 тепло 1016.8 1011.6
В 1 15 км {ливн. осадки} 10/3
[Cu med, cong Ac As]
+15.3 +14.2 93 +16 +16 тепло 1016.8 1011.6 0.0
СВ 1 н/о н/о +15.2 +13.9 92 +16 +16 тепло 1017.1 1011.9
С 1 н/о н/о +15.0 +13.7 92 +16 +16 тепло 1017.6 1012.3
С 2 15 км слаб. ливневой дождь 10/0
[Ac As]
+14.9 +13.5 91 +15 +15 тепло 1017.3 1012.0
ЮВ 1 н/о н/о +15.2 +13.8 91 +16 +16 тепло 1017.6 1012.4
С 1 н/о н/о +15.6 +13.6 88 +17 +17 тепло 1018.1 1012.9
штиль 0 20 км слаб. ливневой дождь 10/1
[Cu hum Ac As]
+16.0 +12.9 82 +16 +18 тепло 1019.0 1013.8 +14.8 0.0
Ю 1 н/о н/о +16.3 +12.7 79 +18 +18 тепло 1018.8 1013.6
С 2 н/о н/о +16.3 +12.9 80 +17 +17 тепло 1018.5 1013.3
З 3 20 км слаб. ливневой дождь 10/1
[Frnb Ac As]
+16.2 +12.4 78 +16 +18 тепло 1017.7 1012.5
Ю 2 н/о н/о +15.9 +13.0 83 +16 +16 тепло 1017.7 1012.5
Ю 2 н/о н/о +15.5 +14.1 91 +16 +16 тепло 1017.8 1012.6
ЮВ 1 10 км слаб. ливневой дождь 10/1
[Frnb Ac As]
+14.9 +13.3 90 +15 +16 тепло 1017.8 1012.5 4
С 3 н/о н/о +14.8 +13.4 91 +14 +14 тепло 1017.1 1011.8
СВ 2 н/о н/о +14.8 +11.0 78 +15 +15 тепло 1016.2 1011.0
ЮЗ 2 15 км слаб. ливневой дождь 10/9
[Cu med, cong Ac As]
+14.8 +11.8 82 +14 +14 тепло 1016.5 1011.2
В 2 н/о н/о +14.5 +11.7 83 +14 +14 тепло 1015.8 1010.5
СВ 1 н/о н/о +14.4 +11.0 80 +15 +15 тепло 1015.8 1010.5
С 4 10 км слаб. ливневой дождь 10/10
[Cu med, cong]
+14.1 +10.7 80 +13 +13 тепло 1014.3 1009.0 +16.8 5
В 3 н/о н/о +13.8 +11.2 84 +13 +13 тепло 1013.6 1008.3
СВ 5 н/о н/о +13.6 +10.8 83 +12 +12 тепло 1012.9 1007.6
С 5 н/о н/о +13.4 +10.4 82 +12 +12 тепло 1010.7 1005.5
Ю 3 н/о н/о +12.5 +11.2 92 +11 +11 тепло 1009.4 1004.1
СЗ 3 н/о н/о +12.5 +10.9 90 +11 +11 тепло 1008.0 1002.7
СЗ 3 10 км ливневой дождь 10/10
[Cu med, cong]
+11.7 +10.3 91 +10 +10 тепло 1006.6 1001.3 19
СЗ 2 н/о н/о +11.7 +10.3 91 +10 +10 тепло 1005.3 1000.0
СЗ 6 н/о н/о +11.9 +9.1 83 +9 +9 тепло 1005.0 999.8
Ю 2 10 км в посл. час ливневой дождь 10/10
[Cu med, cong]
+12.3 +7.0 70 +11 +11 тепло 1005.6 1000.4
СЗ 11 н/о н/о +12.4 +5.6 63 +9 +9 тепло 1005.9 1000.7
СЗ 10 н/о н/о +12.8 +5.7 62 +10 +10 тепло 1007.0 1001.8
СЗ 13 30 км {ливн. осадки} 1/1
[St Ac trans Ci sp]
+13.8 +5.9 59 +11 +11 тепло 1007.9 1002.7 +11.6 27
СЗ 13 н/о н/о +14.6 +4.3 50 +12 +12 тепло 1009.4 1004.2
СЗ 11 н/о н/о +15.3 +4.1 47 +13 +13 тепло 1011.3 1006.1
С 9 30 км 1/1
[Cu hum]
+15.9 +4.0 45 +14 +15 тепло 1012.5 1007.3
СЗ 11 н/о н/о +15.6 +4.9 49 +13 +13 тепло 1013.8 1008.6
СЗ 10 н/о н/о +15.2 +4.3 48 +13 +13 тепло 1015.1 1009.9
С 9 30 км 1/1
[Cu hum]
+14.8 +3.9 48 +13 +13 тепло 1016.4 1011.1
СЗ 9 н/о н/о +13.8 +2.4 46 +11 +11 тепло 1017.5 1012.2
СЗ 6 н/о н/о +12.6 +3.3 53 +10 +10 тепло 1019.3 1014.0
СЗ 5 20 км 1/0
[Ac trans]
+11.6 +4.4 61 +9 +9 тепло 1020.5 1015.2
СЗ 5 н/о н/о +11.1 +5.0 66 +9 +9 тепло 1021.6 1016.2
С 3 н/о н/о +9.7 +5.1 73 +8 +8 тепло 1022.0 1016.6
СЗ 2 20 км 1/0
[Ci sp]
+9.2 +5.0 75 +8 +8 тепло 1023.0 1017.6 +16.6
С 2 н/о н/о +7.8 +5.3 84 +6 +6 тепло 1023.8 1018.4
С 2 н/о н/о +7.4 +4.7 83 +5 +5 тепло 1023.3 1017.9
В 2 н/о н/о +6.6 +4.4 86 +5 +5 тепло 1023.7 1018.2
В 2 н/о н/о +6.0 +4.7 91 +4 +4 по сезону 1024.5 1019.0
С 2 н/о н/о +6.4 +4.4 87 +5 +5 тепло 1024.3 1018.8
В 2 20 км 8/0
[Ci sp]
+6.0 +4.2 88 +4 +4 по сезону 1024.3 1018.8
СВ 2 н/о н/о +6.2 +4.7 90 +4 +4 по сезону 1024.5 1019.0
СВ 3 н/о н/о +6.0 +4.8 92 +3 +3 по сезону 1024.5 1019.0
С 3 30 км 8/1
[Cu med, cong Ac trans Ci sp]
+6.5 +4.2 85 +4 +4 по сезону 1024.1 1018.6
С 2 н/о н/о +8.2 +5.0 80 +7 +7 тепло 1023.7 1018.3
С 1 н/о н/о +10.1 +6.5 78 +10 +10 тепло 1023.9 1018.5
В 5 30 км 8/3
[Cu med, cong Ac trans Ci sp]
+14.5 +7.3 62 +13 +14 тепло 1023.1 1017.8 +5.6
В 6 н/о н/о +15.4 +7.9 61 +14 +14 тепло 1021.9 1016.6
ЮВ 6 н/о н/о +16.1 +8.3 60 +15 +15 тепло 1021.4 1016.1
В 4 30 км в посл. час ливневой дождь 9/6
[Cu med, cong Ac trans]
+15.9 +8.9 63 +15 +16 тепло 1020.6 1015.3
В 4 н/о н/о +16.5 +9.2 62 +16 +16 тепло 1019.2 1014.0
В 3 н/о н/о +16.4 +9.8 65 +16 +16 тепло 1018.8 1013.6
В 4 30 км {ливн. осадки} 5/3
[Cu med, cong Ac trans]
+17.2 +10.4 64 +17 +18 тепло 1018.4 1013.2 0.0
В 3 н/о н/о +16.6 +10.5 67 +16 +16 тепло 1017.9 1012.7
Ю 2 н/о н/о +15.9 +9.3 65 +16 +16 тепло 1018.0 1012.8
С 2 20 км 1/1
[Cu hum Ac trans]
+12.9 +10.5 85 +12 +12 тепло 1018.3 1013.0
С 2 н/о н/о +12.0 +9.9 87 +11 +11 тепло 1018.5 1013.2
С 2 н/о н/о +12.1 +9.8 86 +11 +11 тепло 1018.8 1013.5
СЗ 3 20 км 9/9
[Cu med, cong Ac As]
+12.0 +9.2 83 +10 +10 тепло 1018.7 1013.4 +17.3 0.0
СЗ 4 н/о н/о +12.5 +9.5 82 +11 +11 тепло 1018.9 1013.6
З 4 н/о н/о +12.3 +7.6 73 +11 +11 тепло 1019.0 1013.7
СЗ 4 н/о н/о +11.7 +4.9 63 +10 +10 тепло 1019.2 1013.9
С 5 н/о н/о +11.2 +5.1 66 +9 +9 тепло 1019.6 1014.3
СЗ 5 н/о н/о +10.4 +5.4 71 +8 +8 тепло 1020.3 1014.9
СЗ 6 20 км {ливн. осадки} 9/9
[Cu med, cong]
+9.7 +3.7 66 +6 +6 тепло 1020.8 1015.4 0.0
СЗ 4 н/о н/о +8.8 +3.4 69 +6 +6 тепло 1021.7 1016.3
СЗ 3 н/о н/о +7.3 +3.0 74 +5 +5 тепло 1022.5 1017.1
СЗ 1 20 км 1/1
[Cu hum Ac trans]
+6.0 +2.6 79 +5 +5 тепло 1023.2 1017.7
СЗ 3 н/о н/о +7.3 +2.0 69 +5 +5 тепло 1023.8 1018.4
СЗ 4 н/о н/о +9.6 +0.5 53 +7 +7 тепло 1024.7 1019.3
С 6 40 км 1/1
[Cu hum]
+10.7 +0.2 48 +8 +10 тепло 1025.2 1019.8 +6.0 0.0
СЗ 5 н/о н/о +11.6 -0.2 44 +9 +9 тепло 1025.3 1019.9
З 3 н/о н/о +11.6 -0.2 44 +10 +10 тепло 1024.9 1019.5
СЗ 4 40 км 1/1
[Cu med, cong]
+12.5 0.0 42 +11 +16 тепло 1024.3 1019.0
ЮЗ 3 н/о н/о +12.8 +1.2 45 +12 +12 тепло 1023.7 1018.4
З 3 н/о н/о +13.5 +1.5 44 +13 +13 тепло 1023.6 1018.3
З 4 40 км 3/3
[Cu med, cong]
+13.4 +2.3 47 +12 +13 тепло 1023.8 1018.5
З 5 н/о н/о +12.4 +2.8 52 +10 +10 тепло 1024.0 1018.7
З 5 н/о н/о +10.2 +2.6 59 +7 +7 тепло 1024.4 1019.0
СЗ 3 20 км 1/1
[Cu hum]
+9.2 +3.0 65 +7 +7 тепло 1024.9 1019.5
С 3 н/о н/о +8.0 +2.9 70 +6 +6 тепло 1025.2 1019.8
С 2 н/о н/о +7.0 +2.3 72 +5 +5 тепло 1025.3 1019.8
С 2 20 км ясно +5.6 +2.4 80 +4 +4 по сезону 1025.9 1020.4 +14.1
СВ 4 н/о н/о +5.0 +2.2 82 +1 +1 по сезону 1026.2 1020.7
С 4 н/о н/о +5.5 +2.3 80 +2 +2 по сезону 1026.0 1020.5
С 3 н/о н/о +5.4 +2.8 83 +2 +2 по сезону 1025.8 1020.3
СВ 1 н/о н/о +4.8 +2.8 87 +3 +3 по сезону 1025.9 1020.4
СВ 3 н/о н/о +4.7 +3.4 91 +1 +1 по сезону 1025.8 1020.3
С 2 20 км 9/9
[Cu med, cong]
+5.9 +3.6 85 +4 +4 по сезону 1025.5 1020.0
Местоположение метеостанции Хакодате (Япония): широта 41.82 долгота 140.75 высота над уровнем моря 43 м.
В архиве по умолчанию представлена погода в Хакодате за последнюю неделю. Архивные данные за месяц целиком и за предыдущие месяцы, начиная с января 2011 года, Вы можете получить, выбрав интересующий диапазон дат из раскрывающегося списка и нажав кнопку "Найти!".
*Определитесь, кто Вы:
Внимание! Время в таблицах - всемирное. Для получения местного времени необходимо прибавить поправку, которая равна 9 ч.
Смотрите также архив погоды в соседних городах и на ближайших метеорологических станциях:
Партнеры нашего сайта:      
Пояснения к столбцам:
  • Ветер - указаны скорость ветра в м/с - средняя за 10 мин, порывы в срок и между сроками (в фигурных скобках) и направление, откуда дует ветер: С - северный,
  • СВ - северо-восточный, В - восточный, ЮВ - юго-восточный, Ю - южный, ЮЗ - юго-западный, З - западный, СЗ - северо-западный.
  • Видимость - горизонтальная дальность видимости в метрах или километрах. При видимости от 1 до 10 км при отсутствии осадков обычно наблюдается дымка, при ухудшении видимости до 1 км и менее - туман. В сухую погоду видимость может ухудшаться дымом, пылью или мглою.
  • Явления - указаны атмосферные явления, наблюдавшиеся в срок или в последний час перед сроком; фигурными скобками обозначены явления, наблюдавшиеся между сроками (за 1-3 часа до срока); квадратными скобками обозначены град или гололедные отложения с указанием их диаметра в мм.
  • Облачность - указаны через наклонную черту общая и нижняя облачность в баллах и высота нижней границы облаков в метрах; квадратными скобками обозначены формы облаков: Ci - перистые, Cs - перисто-слоистые, Cc - перисто-кучевые, Ac - высококучевые, As - высокослоистые, Sc - слоисто-кучевые, Ns - слоисто-дождевые, Cu - кучевые, Cb - кучево-дождевые. Подробнее классификацию облаков см. в Атласе облаков (PDF).
  • T - Температура воздуха - температура, измеренная на высоте 2 м над землей.
  • Td - Температура точки росы - температура, при понижении до которой содержащийся в воздухе водяной пар достигнет насыщения.
  • f - Относительная влажность воздуха - влажноcть воздуха, измеренная на высоте 2 м над землей.
  • Te - Эффективная температура - температура, которую ощущает одетый по сезону человек в тени. Характеристика душности погоды. При расчете учитывается влияние влажности воздуха и скорости ветра на теплоощущения человека.
  • Tes - Эффективная температура на солнце - температура, которую ощущает человек, с поправкой на солнечный нагрев. Характеристика знойности погоды. Зависит от высоты солнца над горизонтом, облачности и скорости ветра. Ночью, в пасмурную погоду, а также при ветре 12 м/с и более поправка равна нулю.
  • P - Атмосферное давление - приведенное к уровню моря атмосферное давление.
  • Po - Атмосферное давление - измеренное на уровне метеостанции атмосферное давление.
  • Tmin - Минимальная температура - минимум температуры воздуха на высоте 2 м над землей.
  • Tmax - Максимальная температура - максимум температуры воздуха на высоте 2 м над землей.
  • R - Количество осадков - Количество выпавших осадков за период времени, мм. При наведении курсора мыши на число - период времени, за который выпало указанное количество осадков.
  • R24 - Количество осадков - Количество выпавших осадков за 24 часа, мм.
  • S - Снежный покров - Высота снежного покрова, см. При наведении курсора мыши на число - состояние снежного покрова и степень покрытия местности в баллах.